Flag for Fiji Weather past 2 weeks in Lautoka, Fiji

Now
77 °F

Passing clouds.


Feels Like: 78 °F
Forecast: 82 / 89 °F
Wind: 5 mph from East

Location: Nandi

Current Time: Mar 5, 2015 at 1:59:48 AM

Latest Report: Mar 5, 2015 at 1:00 AM


Visibility: N/A

Pressure: 29.74 "Hg

Humidity: 100%

Dew point: 77 °F

Location of LautokaLocation

Historic Weather in Lautoka — Graph

°F

Lautoka temperature yesterday

Maximum temperature yesterday: 90 °F (at 11:00 AM)
Minimum temperature yesterday: 77 °F (at 4:00 AM)
Average temperature yesterday: 82 °F

Past Weeks' High & Low Weather Summary

 TemperatureHumidityPressure
High91 °F (Feb 22, 12:00 PM)100% (Feb 18, 6:00 AM)29.89 "Hg (Feb 18, 6:00 AM)
Low73 °F (Feb 18, 6:00 AM)59% (Mar 3, 12:00 PM)29.65 "Hg (Feb 24, 4:00 PM)
Average81 °F86%29.74 "Hg
* Reported Feb 18 1:00 AM — Mar 5 1:00 AM, Lautoka, Weather by CustomWeather, © 2015

Note: Actual official high and low records may vary slightly from our data, if they occured in-between our weather recording intervals... More about our weather records

Advertising

Lautoka weather history for previous 24 hours

 ConditionsComfort  
Time TempWeatherWind HumidityBarometerVisibility
1:00 AM
Thu, Mar 5
77 °FPassing clouds.5 mph100%29.74 "HgN/A
12:00 AM79 °FPassing clouds.No wind94%29.74 "HgN/A
11:00 PM
Wed, Mar 4
79 °FPartly cloudy.3 mph100%29.74 "HgN/A
10:00 PM79 °FPassing clouds.No wind100%29.77 "HgN/A
9:00 PM79 °FPartly cloudy.No wind100%29.74 "HgN/A
8:00 PM79 °FPartly cloudy.No wind100%29.74 "HgN/A
7:00 PM79 °FScattered showers. Partly cloudy.No wind94%29.71 "HgN/A
6:00 PM79 °FScattered showers. Broken clouds.3 mph94%29.71 "HgN/A
5:00 PM79 °FThunderstorms. Broken clouds.6 mph94%29.71 "HgN/A
4:00 PM79 °FThunderstorms. Broken clouds.13 mph100%29.71 "Hg4 mi
3:00 PM88 °FThunderstorms. Broken clouds.9 mph75%29.68 "HgN/A
2:00 PM90 °FScattered clouds.13 mph71%29.68 "HgN/A
1:00 PM90 °FScattered clouds.12 mph71%29.71 "HgN/A
12:00 PM90 °FScattered clouds.13 mph67%29.71 "HgN/A
11:00 AM90 °FScattered clouds.6 mph67%29.74 "HgN/A
10:00 AM88 °FPassing clouds.5 mph70%29.74 "HgN/A
9:00 AM88 °FPassing clouds.10 mph66%29.77 "HgN/A
8:00 AM82 °FScattered clouds.3 mph84%29.74 "HgN/A
7:00 AM77 °FScattered clouds.2 mph94%29.74 "HgN/A
6:00 AM77 °FPassing clouds.2 mph94%29.74 "HgN/A
5:00 AM77 °FPassing clouds.2 mph100%29.71 "HgN/A
4:00 AM77 °FPassing clouds.2 mph100%29.74 "HgN/A
3:00 AM79 °FPassing clouds.2 mph94%29.74 "HgN/A
2:00 AM79 °FPassing clouds.3 mph94%29.74 "HgN/A
1:00 AM79 °FPassing clouds.2 mph94%29.77 "HgN/A
Weather by CustomWeather, © 2015

See weather overviewHow to use our weather pages